Oceanside, California, United States (92049)
Lat: 33.20N, Lon: 117.38W
Wx Zone: CAZ043
Local Info
Past Weather Observations for Today

NOTE: This archive is for the closest National Weather Service station to Oceanside. Information may differ from the station used for current weather conditions.

Time Weather Temperature Dewpoint Humidity Pressure Winds Precip Visibility
19:52
Overcast
59°F / 15°C 54°F / 12°C 82% 29.89 in
(1012 mb)
S 3.5 mph
(S 6 kph)
- 9SM
18:52
Overcast
59°F / 15°C 54°F / 12°C 82% 29.86 in
(1011 mb)
SW 5.8 mph
(SW 9 kph)
- 9SM
18:42
Overcast
61°F / 16°C 55°F / 13°C 83% 29.86 in
(1011 mb)
SSW 5.8 mph
(SSW 9 kph)
- 9SM
17:59
Mostly Cloudy
59°F / 15°C 54°F / 12°C 82% 29.83 in
(1010 mb)
Calm - 7SM
17:52
Mostly Cloudy
59°F / 15°C 54°F / 12°C 82% 29.83 in
(1010 mb)
SSW 6.9 mph
(SSW 11 kph)
- 7SM
17:47
Mostly Cloudy
59°F / 15°C 54°F / 12°C 82% 29.83 in
(1010 mb)
SSW 3.5 mph
(SSW 6 kph)
- 7SM
17:06
Partly Cloudy
61°F / 16°C 55°F / 13°C 83% 29.83 in
(1010 mb)
SW 8.1 mph
(SW 13 kph)
- 8SM
16:52
Clear
63°F / 17°C 55°F / 13°C 77% 29.83 in
(1010 mb)
SW 9.2 mph
(SW 15 kph)
- 8SM
15:52
Clear
64°F / 18°C 54°F / 12°C 68% 29.83 in
(1010 mb)
Variable 6.9 mph
(Variable 11 kph)
- 9SM
14:52
Clear
64°F / 18°C 54°F / 12°C 68% 29.86 in
(1011 mb)
Variable 4.6 mph
(Variable 7 kph)
- 8SM
13:52
Clear
64°F / 18°C 54°F / 12°C 68% 29.89 in
(1012 mb)
SSW 11.5 mph
(SSW 19 kph)
- 8SM
12:52
Clear
Hazy
64°F / 18°C 54°F / 12°C 68% 29.92 in
(1013 mb)
SSW 9.2 mph
(SSW 15 kph)
- 6SM
11:52
Clear
Hazy
64°F / 18°C 54°F / 12°C 68% 29.92 in
(1013 mb)
SSW 9.2 mph
(SSW 15 kph)
- 5SM
10:52
Clear
64°F / 18°C 54°F / 12°C 68% 29.95 in
(1014 mb)
W 5.8 mph
(W 9 kph)
- 7SM
10:21
Partly Cloudy
63°F / 17°C 54°F / 12°C 73% 29.98 in
(1015 mb)
SSW 8.1 mph
(SSW 13 kph)
- 7SM
09:52
Mostly Cloudy
63°F / 17°C 54°F / 12°C 73% 29.98 in
(1015 mb)
SSW 8.1 mph
(SSW 13 kph)
- 8SM
09:45
Mostly Cloudy
63°F / 17°C 54°F / 12°C 73% 29.98 in
(1015 mb)
WNW 10.4 mph
(WNW 17 kph)
- 8SM
08:52
Clear
63°F / 17°C 54°F / 12°C 73% 29.95 in
(1014 mb)
SSW 5.8 mph
(SSW 9 kph)
- 8SM
08:26
Partly Cloudy
Hazy
61°F / 16°C 54°F / 12°C 77% 29.95 in
(1014 mb)
SW 4.6 mph
(SW 7 kph)
- 5SM
07:52
Overcast
Fog And Mist
57°F / 14°C 54°F / 12°C 88% 29.95 in
(1014 mb)
Calm - 4SM
06:52
Overcast
Fog And Mist
57°F / 14°C 54°F / 12°C 88% 29.98 in
(1015 mb)
Calm - 3SM
05:52
Overcast
Fog And Mist
57°F / 14°C 54°F / 12°C 88% 29.98 in
(1015 mb)
Calm - 4SM
04:52
Overcast
Fog And Mist
55°F / 13°C 54°F / 12°C 94% 29.98 in
(1015 mb)
Calm - 5SM
04:40
Overcast
Fog And Mist
55°F / 13°C 54°F / 12°C 94% 29.95 in
(1014 mb)
Calm - 6SM
03:52
Overcast
Fog And Mist
50°F / 10°C 48°F / 9°C 94% 29.98 in
(1015 mb)
Calm - 6SM
03:43
Mostly Cloudy
Fog And Mist
50°F / 10°C 48°F / 9°C 94% 29.98 in
(1015 mb)
Calm - 5SM
03:32
Partly Cloudy
Fog And Mist
48°F / 9°C 46°F / 8°C 94% 29.98 in
(1015 mb)
Calm - 4SM
02:52
Clear
Fog And Mist
52°F / 11°C 48°F / 9°C 88% 29.98 in
(1015 mb)
Calm - 5SM
01:52
Clear
Fog And Mist
55°F / 13°C 54°F / 12°C 94% 29.98 in
(1015 mb)
Calm - 5SM
00:52
Clear
Fog And Mist
55°F / 13°C 54°F / 12°C 94% 29.98 in
(1015 mb)
NE 3.5 mph
(NE 6 kph)
- 5SM
00:28
Partly Cloudy
Fog And Mist
57°F / 14°C 55°F / 13°C 94% 30.01 in
(1016 mb)
ENE 6.9 mph
(ENE 11 kph)
- 6SM
Time Weather Temperature Dewpoint Humidity Pressure Winds Precip Visibility


Weather for websites

WeatherForYou.com, LLC is not responsible for any damages or problems caused by this service. Current weather conditions are obtained from the closest station including government and personal stations which may have varying degrees of accuracy. Weather forecasts are derived from the NOAA NDFD. Like all things, this site belongs to Jesus Christ... He just trusts me to maintain it. If you have any questions or comments email webmaster@weatherforyou.com

Copyright © 2014, WeatherForYou.com LLC. All rights reserved.